Вернуться в каталог

THORAD DELTA 1 DEB

АктивенLEO
NORAD 8299·DEBRIS·🇺🇸 United States

Запущен Nov 15, 1974 с Vandenberg Space Force Base

Loading…

Ближайшие Пролёты (ближайшие 24 часа)

TLE

СвежийSource: Space-Track

Эпоха: Sep 13, 2026, 23:50 UTC

1 08299U 74089BG  26256.99353501  .00009296  00000-0  54602-2 0  9997
2 08299 102.0519  96.2165 0303754 233.4700 123.8125 13.87810908485787

Отслеживайте THORAD DELTA 1 DEB в реальном времени с AllMySat

Download on the App Store